Weather in Poletayevo

Russia / Tambov Oblast     51°53′10″N   41°05′30″E
temp.,
°C
wind,
m/s
gust,
m/s
humid.,
%
clouds,
%
prec.,
mm/h
press.,
hPa
HPBL,
m
24 september, fri
fri2400:00+7sw33818 0.0 101240
03:00+6sw33869 0.0 101239
06:00+7s2483100 0.0 1011105
09:00+8sse3583100 0.2 1011267
12:00+12sse57627 0.1 1010882
15:00+13s5854100 0.3 10081403
18:00+12s2256100 0.0 100834
21:00+11sse3464100 0.0 100867
25 september, sat
sat2500:00+10sse3573100 0.0 1007122
03:00+10sse227397 0.0 100751
06:00+8sw1174100 0.0 100811
09:00+11nne1159100 0.0 1008219
12:00+15sw124648 0.0 10091490
15:00+14w3351100 0.0 1009751
18:00+12wnw3565100 0.0 1011263
21:00+10w2470100 0.0 1011207
26 september, sun
sun2600:00+10wsw257692 0.0 1011193
03:00+10sw3679100 0.0 1010215
06:00+9ssw4884100 0.2 1009310
09:00+9s4892100 1.6 1008349
12:00+9sw4994100 2.8 1006606
15:00+11wnw578272 3.9 1006660
18:00+11nw61181100 0.8 1006668
21:00+8wnw51094100 1.8 1007496
27 september, mon
mon2700:00+9n61190100 1.7 1008703
03:00+9n5119090 1.9 1011483
06:00+9n61192100 0.2 1013441
09:00+10nne61184100 0.3 1015624
12:00+13n7960100 0.0 10171220
15:00+13n686060 0.1 10181456
18:00+10n5977100 0.1 1020618
21:00+9n5982100 0.1 1021567
28 september, tue
tue2800:00+9n4786100 0.0 1022422
03:00+8n4792100 0.0 1023277
06:00+7n379744 0.0 1024239
09:00+9nne5785100 0.0 1025561
12:00+11ne4571100 0.1 1026880
15:00+13nne5655100 0.1 10261446
18:00+11n476187 0.0 1027393
21:00+10nne4763100 0.0 1028348